Flag for Germany Weather past 2 weeks in Hückelhoven, North Rhine-Westphalia, Germany

Now
54 °F

Passing clouds.


Feels Like: 49 °F
Forecast: 38 / 59 °F
Wind: 18 mph from Northeast

Location: Monchengladbach Airport

Current Time: Apr 18, 2015 at 2:51:39 PM

Latest Report: Apr 18, 2015 at 2:20 PM


Visibility: N/A

Pressure: 30.33 "Hg

Humidity: 41%

Dew point: 30 °F

Location of HückelhovenLocation

Historic Weather in Hückelhoven — Graph

°F

Hückelhoven temperature yesterday

Maximum temperature yesterday: 55 °F (at 4:20 PM)
Minimum temperature yesterday: 43 °F (at 7:50 AM)
Average temperature yesterday: 51 °F

Past Weeks' High & Low Weather Summary

 TemperatureHumidityPressure
High75 °F (Apr 15, 3:20 PM)100% (Apr 5, 8:20 AM)30.66 "Hg (Apr 5, 8:20 AM)
Low32 °F (Apr 5, 7:50 AM)27% (Apr 10, 2:50 PM)29.92 "Hg (Apr 15, 6:50 PM)
Average54 °F61%30.25 "Hg
* Reported Apr 3 1:20 PM — Apr 18 1:50 PM, Hückelhoven, Weather by CustomWeather, © 2015

Note: Actual official high and low records may vary slightly from our data, if they occured in-between our weather recording intervals... More about our weather records

Advertising

Hückelhoven weather history for previous 24 hours

 ConditionsComfort  
Time TempWeatherWind HumidityBarometerVisibility
1:50 PM
Sat, Apr 18
54 °FPassing clouds.16 mph41%30.33 "HgN/A
1:20 PM55 °FPassing clouds.17 mph41%30.33 "HgN/A
12:50 PM54 °FPassing clouds.17 mph41%30.33 "HgN/A
12:20 PM54 °FPassing clouds.12 mph44%30.33 "HgN/A
11:50 AM52 °FScattered clouds.12 mph47%30.33 "HgN/A
11:20 AM50 °FPassing clouds.10 mph50%30.33 "HgN/A
10:50 AM50 °FPassing clouds.10 mph54%30.33 "HgN/A
10:20 AM48 °FPassing clouds.12 mph62%30.33 "HgN/A
9:50 AM46 °FPassing clouds.9 mph66%30.33 "HgN/A
9:20 AM46 °FPassing clouds.8 mph71%30.33 "HgN/A
8:50 AM45 °FPassing clouds.7 mph76%30.33 "HgN/A
8:20 AM43 °FPassing clouds.6 mph81%30.33 "HgN/A
7:50 AM39 °FSunny.5 mph93%30.30 "Hg10 mi
8:20 PM
Fri, Apr 17
52 °FPassing clouds.9 mph44%30.12 "HgN/A
7:50 PM54 °FPassing clouds.8 mph41%30.09 "HgN/A
7:20 PM54 °FPassing clouds.9 mph44%30.09 "HgN/A
6:50 PM54 °FPassing clouds.10 mph44%30.09 "HgN/A
6:20 PM55 °FPassing clouds.12 mph41%30.09 "HgN/A
5:50 PM54 °FClear.12 mph47%30.09 "Hg10 mi
5:20 PM55 °FClear.10 mph44%30.07 "Hg10 mi
4:50 PM54 °FClear.10 mph47%30.07 "Hg10 mi
4:20 PM55 °FClear.12 mph44%30.07 "Hg10 mi
3:50 PM54 °FClear.9 mph51%30.07 "Hg10 mi
3:20 PM54 °FClear.13 mph51%30.07 "Hg10 mi
2:50 PM54 °FPassing clouds.17 mph54%30.07 "HgN/A
2:20 PM54 °FPassing clouds.17 mph58%30.07 "HgN/A
Weather by CustomWeather, © 2015

See weather overviewHow to use our weather pages